Вернуться в каталог

GAOFEN 3 02

АктивенНаукаSSO
NORAD 49495·PAYLOAD·🇨🇳 China

Запущен Nov 22, 2021 с Jiuquan Satellite Launch Center

Loading…

Ближайшие Пролёты (ближайшие 24 часа)

TLE

СвежийSource: Space-Track

Эпоха: Sep 14, 2026, 23:06 UTC

1 49495U 21109A   26257.96283051  .00000005  00000-0  14849-4 0  9995
2 49495  98.4122 264.7979 0003971  79.5712 280.5925 14.42216786253253

Отслеживайте GAOFEN 3 02 в реальном времени с AllMySat

Download on the App Store